TimeHST,TemperatureF,Dew PointF,Humidity,Sea Level PressureIn,VisibilityMPH,Wind Direction,Wind SpeedMPH,Gust SpeedMPH,PrecipitationIn,Events,Conditions,WindDirDegrees,DateUTC
12:53 AM,66.9,62.1,84,29.92,10.0,West,5.8,-,0.00,,Overcast,260,2013-03-10 10:53:00
1:53 AM,66.9,61.0,81,29.90,10.0,WSW,4.6,-,N/A,,Mostly Cloudy,240,2013-03-10 11:53:00
2:53 AM,64.9,61.0,87,29.88,10.0,Calm,Calm,-,N/A,,Partly Cloudy,0,2013-03-10 12:53:00
3:53 AM,63.0,61.0,93,29.87,10.0,NW,3.5,-,N/A,,Mostly Cloudy,310,2013-03-10 13:53:00
4:53 AM,64.0,62.1,93,29.88,10.0,Calm,Calm,-,N/A,,Overcast,0,2013-03-10 14:53:00
5:53 AM,63.0,60.1,90,29.88,10.0,WNW,5.8,-,N/A,,Partly Cloudy,300,2013-03-10 15:53:00
6:53 AM,63.0,61.0,93,29.90,10.0,West,6.9,-,N/A,,Mostly Cloudy,280,2013-03-10 16:53:00
7:53 AM,64.9,62.1,90,29.92,10.0,West,3.5,-,N/A,,Overcast,270,2013-03-10 17:53:00
8:53 AM,70.0,62.1,76,29.94,10.0,WSW,4.6,-,N/A,,Scattered Clouds,240,2013-03-10 18:53:00
9:53 AM,71.1,60.1,68,29.95,10.0,South,4.6,-,N/A,,Overcast,170,2013-03-10 19:53:00
10:53 AM,73.0,60.1,64,29.96,10.0,SE,5.8,-,N/A,,Overcast,130,2013-03-10 20:53:00
11:53 AM,72.0,62.1,71,29.94,10.0,ESE,4.6,-,N/A,,Overcast,120,2013-03-10 21:53:00
12:53 PM,73.9,61.0,64,29.93,10.0,SE,15.0,-,N/A,,Overcast,140,2013-03-10 22:53:00
1:53 PM,75.0,62.1,64,29.91,10.0,ESE,12.7,-,N/A,,Mostly Cloudy,120,2013-03-10 23:53:00
2:53 PM,77.0,61.0,58,29.89,10.0,East,6.9,-,N/A,,Scattered Clouds,100,2013-03-11 00:53:00
3:53 PM,75.9,62.1,62,29.90,10.0,NE,16.1,-,N/A,,Scattered Clouds,50,2013-03-11 01:53:00
4:53 PM,73.9,59.0,59,29.91,10.0,NE,12.7,-,N/A,,Clear,40,2013-03-11 02:53:00
5:53 PM,72.0,57.9,61,29.93,10.0,NNE,10.4,-,N/A,,Clear,30,2013-03-11 03:53:00
6:53 PM,70.0,55.9,61,29.95,10.0,North,3.5,-,N/A,,Mostly Cloudy,350,2013-03-11 04:53:00
7:53 PM,68.0,55.9,65,29.98,10.0,WNW,4.6,-,N/A,,Mostly Cloudy,290,2013-03-11 05:53:00
8:53 PM,64.9,55.9,73,30.01,10.0,WNW,5.8,-,N/A,,Mostly Cloudy,290,2013-03-11 06:53:00
9:53 PM,64.0,55.9,75,30.03,10.0,WNW,5.8,-,N/A,,Clear,290,2013-03-11 07:53:00
10:53 PM,63.0,55.9,78,30.03,10.0,West,5.8,-,N/A,,Clear,270,2013-03-11 08:53:00
11:53 PM,62.1,55.9,80,30.03,10.0,West,5.8,-,N/A,,Clear,280,2013-03-11 09:53:00